| time (UTC) | temp C | wind direction | speed KPH | gust KPH | rain 1hr cm | rain 24hr cm | rain mn cm | humidity % | barometer mb |
| 20260506185555 | 27 | 34 | 3.2 | 8.0 | 0.00 | 0.00 | 0.00 | 82 | 1010.1 |
| 20260506185058 | 27 | 113 | 3.2 | 9.7 | 0.00 | 0.00 | 0.00 | 84 | 1010.1 |
| 20260506184556 | 27 | 64 | 4.8 | 9.7 | 0.00 | 0.00 | 0.00 | 82 | 1010.1 |
| 20260506184056 | 27 | 113 | 3.2 | 8.0 | 0.00 | 0.00 | 0.00 | 83 | 1010.2 |
| 20260506183556 | 27 | 86 | 4.8 | 8.0 | 0.00 | 0.00 | 0.00 | 84 | 1010.3 |
| 20260506183100 | 27 | 53 | 1.6 | 12.9 | 0.00 | 0.00 | 0.00 | 85 | 1010.3 |
| 20260506182556 | 26 | 98 | 6.4 | 17.7 | 0.00 | 0.00 | 0.00 | 86 | 1010.2 |
| 20260506182055 | 26 | 54 | 6.4 | 17.7 | 0.00 | 0.00 | 0.00 | 85 | 1010.2 |
| 20260506181621 | 26 | 97 | 6.4 | 17.7 | 0.00 | 0.00 | 0.00 | 87 | 1010.3 |
| 20260506181055 | 26 | 66 | 6.4 | 11.3 | 0.00 | 0.00 | 0.00 | 85 | 1010.4 |
| 20260506180557 | 26 | 58 | 4.8 | 12.9 | 0.00 | 0.00 | 0.00 | 86 | 1010.4 |
| 20260506180054 | 26 | 73 | 8.0 | 14.5 | 0.00 | 0.00 | 0.00 | 85 | 1010.6 |
| 20260506175555 | 26 | 43 | 8.0 | 14.5 | 0.00 | 0.00 | 0.00 | 88 | 1010.6 |
| 20260506175055 | 26 | 58 | 9.7 | 14.5 | 0.00 | 0.00 | 0.00 | 88 | 1010.6 |
| 20260506174555 | 26 | 71 | 9.7 | 14.5 | 0.00 | 0.00 | 0.00 | 88 | 1010.7 |
| 20260506174055 | 25 | 67 | 8.0 | 11.3 | 0.00 | 0.00 | 0.00 | 89 | 1010.8 |
| 20260506173556 | 25 | 63 | 8.0 | 11.3 | 0.00 | 0.00 | 0.00 | 91 | 1010.8 |
| 20260506173101 | 25 | 79 | 6.4 | 11.3 | 0.00 | 0.00 | 0.00 | 90 | 1010.9 |
| 20260506172556 | 25 | 70 | 4.8 | 8.0 | 0.00 | 0.00 | 0.00 | 90 | 1010.9 |
| 20260506172055 | 25 | 87 | 3.2 | 8.0 | 0.00 | 0.00 | 0.00 | 91 | 1011.1 |
| 20260506171600 | 25 | 63 | 4.8 | 8.0 | 0.00 | 0.00 | 0.00 | 90 | 1011.2 |
| 20260506171055 | 25 | 64 | 6.4 | 8.0 | 0.00 | 0.00 | 0.00 | 90 | 1011.3 |
| 20260506170556 | 25 | 65 | 3.2 | 4.8 | 0.00 | 0.00 | 0.00 | 90 | 1011.3 |
| 20260506170057 | 25 | 24 | 1.6 | 8.0 | 0.00 | 0.00 | 0.00 | 90 | 1011.3 |
| 20260506165558 | 25 | 15 | 3.2 | 9.7 | 0.00 | 0.00 | 0.00 | 89 | 1011.4 |
| 20260506165056 | 25 | 39 | 6.4 | 9.7 | 0.00 | 0.00 | 0.00 | 89 | 1011.5 |
| 20260506164600 | 25 | 34 | 3.2 | 8.0 | 0.00 | 0.00 | 0.00 | 88 | 1011.5 |
| 20260506164058 | 25 | 16 | 6.4 | 8.0 | 0.00 | 0.00 | 0.00 | 88 | 1011.4 |
| 20260506163555 | 25 | 25 | 4.8 | 6.4 | 0.00 | 0.00 | 0.00 | 87 | 1011.4 |
| 20260506163055 | 25 | 17 | 4.8 | 6.4 | 0.00 | 0.00 | 0.00 | 87 | 1011.5 |
| 20260506162555 | 25 | 23 | 3.2 | 4.8 | 0.00 | 0.00 | 0.00 | 87 | 1011.5 |
| 20260506162058 | 25 | 66 | 1.6 | 4.8 | 0.00 | 0.00 | 0.00 | 87 | 1011.2 |
| 20260506161557 | 25 | 65 | 3.2 | 6.4 | 0.00 | 0.00 | 0.00 | 87 | 1011.2 |
| 20260506161058 | 25 | 105 | 3.2 | 6.4 | 0.00 | 0.00 | 0.00 | 86 | 1011.2 |
| 20260506160555 | 25 | 60 | 3.2 | 8.0 | 0.00 | 0.00 | 0.00 | 86 | 1011.1 |
| 20260506160059 | 25 | 135 | 3.2 | 9.7 | 0.00 | 0.00 | 0.00 | 86 | 1011.0 |
| 20260506155602 | 25 | 68 | 3.2 | 9.7 | 0.00 | 0.00 | 0.00 | 88 | 1010.7 |
| 20260506155054 | 25 | 79 | 6.4 | 9.7 | 0.00 | 0.00 | 0.00 | 88 | 1010.5 |
| 20260506154601 | 25 | 72 | 4.8 | 9.7 | 0.00 | 0.00 | 0.00 | 88 | 1010.4 |
| 20260506154056 | 25 | 85 | 6.4 | 9.7 | 0.00 | 0.00 | 0.00 | 88 | 1010.5 |
| 20260506153556 | 25 | 124 | 6.4 | 9.7 | 0.00 | 0.00 | 0.00 | 87 | 1010.4 |
| 20260506153110 | 25 | 139 | 3.2 | 8.0 | 0.00 | 0.00 | 0.00 | 88 | 1010.3 |
| 20260506152555 | 25 | 95 | 4.8 | 6.4 | 0.00 | 0.00 | 0.00 | 88 | 1010.3 |
| 20260506152055 | 25 | 99 | 4.8 | 9.7 | 0.00 | 0.00 | 0.00 | 88 | 1010.3 |
| 20260506151555 | 25 | 109 | 4.8 | 9.7 | 0.00 | 0.00 | 0.00 | 88 | 1010.3 |
| 20260506151100 | 25 | 105 | 4.8 | 8.0 | 0.00 | 0.00 | 0.00 | 88 | 1010.4 |
| 20260506150555 | 25 | 148 | 3.2 | 6.4 | 0.00 | 0.00 | 0.00 | 89 | 1010.5 |
| 20260506145555 | 25 | 147 | 3.2 | 6.4 | 0.00 | 0.00 | 0.00 | 89 | 1010.4 |
| 20260506145055 | 25 | 165 | 3.2 | 9.7 | 0.00 | 0.00 | 0.00 | 89 | 1010.4 |
| 20260506144558 | 25 | 155 | 4.8 | 14.5 | 0.00 | 0.00 | 0.00 | 90 | 1010.2 |
| 20260506144055 | 25 | 133 | 8.0 | 14.5 | 0.00 | 0.00 | 0.00 | 89 | 1010.1 |
| 20260506143555 | 25 | 149 | 8.0 | 12.9 | 0.00 | 0.00 | 0.00 | 89 | 1010.0 |
| 20260506143054 | 25 | 150 | 8.0 | 12.9 | 0.00 | 0.00 | 0.00 | 90 | 1010.0 |
| 20260506142555 | 25 | 138 | 8.0 | 11.3 | 0.00 | 0.00 | 0.00 | 91 | 1009.8 |
| 20260506142055 | 25 | 147 | 6.4 | 12.9 | 0.00 | 0.00 | 0.00 | 91 | 1009.8 |
| 20260506141555 | 24 | 138 | 8.0 | 12.9 | 0.00 | 0.00 | 0.00 | 91 | 1009.6 |
| 20260506141055 | 24 | 156 | 8.0 | 16.1 | 0.00 | 0.00 | 0.00 | 92 | 1009.6 |
| 20260506140558 | 24 | 117 | 9.7 | 16.1 | 0.00 | 0.00 | 0.00 | 92 | 1009.4 |
| 20260506140107 | 24 | 131 | 9.7 | 16.1 | 0.00 | 0.00 | 0.00 | 92 | 1009.5 |
| 20260506135555 | 23 | 136 | 9.7 | 12.9 | 0.00 | 0.00 | 0.00 | 93 | 1009.4 |
| 20260506135055 | 23 | 162 | 9.7 | 12.9 | 0.00 | 0.00 | 0.00 | 93 | 1009.5 |
| 20260506134553 | 23 | 131 | 8.0 | 16.1 | 0.00 | 0.00 | 0.00 | 93 | 1009.4 |
| 20260506134058 | 23 | 141 | 8.0 | 16.1 | 0.00 | 0.00 | 0.00 | 93 | 1009.5 |
| 20260506133555 | 23 | 117 | 11.3 | 16.1 | 0.00 | 0.00 | 0.00 | 93 | 1009.5 |
| 20260506133053 | 23 | 139 | 8.0 | 11.3 | 0.00 | 0.00 | 0.00 | 93 | 1009.6 |
| 20260506132554 | 23 | 134 | 8.0 | 11.3 | 0.00 | 0.00 | 0.00 | 94 | 1009.6 |
| 20260506132056 | 23 | 135 | 6.4 | 11.3 | 0.00 | 0.00 | 0.00 | 94 | 1009.6 |
| 20260506131556 | 23 | 129 | 6.4 | 9.7 | 0.00 | 0.00 | 0.00 | 94 | 1009.7 |
| 20260506131055 | 23 | 127 | 6.4 | 11.3 | 0.00 | 0.00 | 0.00 | 94 | 1009.5 |
| 20260506130555 | 23 | 133 | 6.4 | 11.3 | 0.00 | 0.00 | 0.00 | 94 | 1009.5 |
| 20260506130058 | 23 | 130 | 6.4 | 14.5 | 0.00 | 0.00 | 0.00 | 94 | 1009.5 |
| 20260506125555 | 23 | 137 | 8.0 | 14.5 | 0.00 | 0.00 | 0.00 | 94 | 1009.5 |
| 20260506125055 | 23 | 132 | 8.0 | 12.9 | 0.00 | 0.00 | 0.00 | 94 | 1009.4 |
| 20260506124556 | 23 | 134 | 6.4 | 9.7 | 0.00 | 0.00 | 0.00 | 95 | 1009.4 |
| 20260506124055 | 23 | 141 | 6.4 | 9.7 | 0.00 | 0.00 | 0.00 | 95 | 1009.4 |
| 20260506123555 | 23 | 160 | 6.4 | 9.7 | 0.00 | 0.00 | 0.00 | 95 | 1009.4 |
| 20260506123055 | 23 | 176 | 6.4 | 9.7 | 0.00 | 0.00 | 0.00 | 95 | 1009.4 |
| 20260506122556 | 23 | 145 | 4.8 | 9.7 | 0.00 | 0.00 | 0.00 | 95 | 1009.3 |
| 20260506122055 | 23 | 158 | 4.8 | 9.7 | 0.00 | 0.00 | 0.00 | 95 | 1009.2 |
| 20260506121557 | 23 | 152 | 4.8 | 9.7 | 0.00 | 0.00 | 0.00 | 95 | 1009.2 |
| 20260506121055 | 23 | 166 | 6.4 | 9.7 | 0.00 | 0.00 | 0.00 | 95 | 1009.1 |
| 20260506120555 | 23 | 155 | 6.4 | 9.7 | 0.00 | 0.00 | 0.00 | 95 | 1009.3 |
| 20260506120057 | 23 | 143 | 4.8 | 9.7 | 0.00 | 0.00 | 0.00 | 95 | 1009.2 |
| 20260506115555 | 23 | 150 | 6.4 | 9.7 | 0.00 | 0.00 | 0.00 | 95 | 1009.2 |
| 20260506115054 | 23 | 135 | 4.8 | 9.7 | 0.00 | 0.00 | 0.00 | 95 | 1009.1 |
| 20260506114559 | 23 | 150 | 4.8 | 11.3 | 0.00 | 0.00 | 0.00 | 95 | 1009.1 |
| 20260506114054 | 23 | 150 | 4.8 | 11.3 | 0.00 | 0.00 | 0.00 | 95 | 1009.0 |
| 20260506113555 | 23 | 154 | 6.4 | 12.9 | 0.00 | 0.00 | 0.00 | 96 | 1009.0 |
| 20260506113055 | 23 | 158 | 8.0 | 12.9 | 0.00 | 0.00 | 0.00 | 96 | 1008.9 |
| 20260506112556 | 22 | 153 | 8.0 | 11.3 | 0.00 | 0.00 | 0.00 | 96 | 1008.9 |
| 20260506112055 | 22 | 159 | 6.4 | 11.3 | 0.00 | 0.00 | 0.00 | 96 | 1008.8 |
| 20260506111554 | 22 | 150 | 6.4 | 11.3 | 0.00 | 0.00 | 0.00 | 96 | 1008.8 |
| 20260506111055 | 22 | 146 | 6.4 | 12.9 | 0.00 | 0.00 | 0.00 | 96 | 1008.8 |
| 20260506110555 | 22 | 160 | 6.4 | 12.9 | 0.00 | 0.00 | 0.00 | 96 | 1008.8 |
| 20260506110057 | 22 | 189 | 4.8 | 12.9 | 0.00 | 0.00 | 0.00 | 95 | 1008.8 |
| 20260506105556 | 22 | 170 | 8.0 | 14.5 | 0.00 | 0.00 | 0.00 | 95 | 1008.6 |
| 20260506105057 | 22 | 195 | 6.4 | 16.1 | 0.00 | 0.00 | 0.00 | 95 | 1008.7 |
| 20260506104600 | 22 | 161 | 8.0 | 16.1 | 0.00 | 0.00 | 0.00 | 95 | 1008.5 |
| 20260506104055 | 22 | 148 | 9.7 | 16.1 | 0.00 | 0.00 | 0.00 | 95 | 1008.3 |
| 20260506103555 | 22 | 161 | 9.7 | 16.1 | 0.00 | 0.00 | 0.00 | 95 | 1008.4 |
| 20260506103059 | 22 | 179 | 11.3 | 16.1 | 0.00 | 0.00 | 0.00 | 95 | 1008.3 |
| 20260506102556 | 22 | 153 | 11.3 | 14.5 | 0.00 | 0.00 | 0.00 | 95 | 1008.1 |
| 20260506102059 | 22 | 160 | 8.0 | 11.3 | 0.00 | 0.00 | 0.00 | 95 | 1008.2 |
| 20260506101600 | 22 | 175 | 6.4 | 14.5 | 0.00 | 0.00 | 0.00 | 95 | 1008.1 |
| 20260506101055 | 22 | 157 | 9.7 | 14.5 | 0.00 | 0.00 | 0.00 | 95 | 1008.0 |
| 20260506100556 | 22 | 154 | 9.7 | 14.5 | 0.00 | 0.00 | 0.00 | 95 | 1007.9 |
| 20260506095555 | 22 | 177 | 9.7 | 14.5 | 0.00 | 0.00 | 0.00 | 95 | 1008.1 |
| 20260506095055 | 22 | 153 | 8.0 | 14.5 | 0.00 | 0.00 | 0.00 | 95 | 1008.1 |
| 20260506094559 | 22 | 157 | 8.0 | 12.9 | 0.00 | 0.00 | 0.00 | 95 | 1008.0 |
| 20260506094058 | 22 | 163 | 8.0 | 12.9 | 0.00 | 0.00 | 0.00 | 95 | 1008.1 |
| 20260506093554 | 22 | 159 | 6.4 | 12.9 | 0.00 | 0.00 | 0.00 | 95 | 1008.1 |
| 20260506093056 | 22 | 179 | 8.0 | 11.3 | 0.00 | 0.00 | 0.00 | 95 | 1008.1 |
| 20260506092556 | 22 | 152 | 8.0 | 11.3 | 0.00 | 0.00 | 0.00 | 95 | 1008.1 |
| 20260506092055 | 22 | 165 | 6.4 | 11.3 | 0.00 | 0.00 | 0.00 | 94 | 1008.1 |
| 20260506091600 | 22 | 148 | 6.4 | 12.9 | 0.00 | 0.00 | 0.00 | 95 | 1008.1 |
| 20260506091059 | 22 | 155 | 6.4 | 12.9 | 0.00 | 0.00 | 0.00 | 94 | 1008.0 |
| 20260506090558 | 22 | 185 | 8.0 | 14.5 | 0.00 | 0.00 | 0.00 | 94 | 1007.9 |
| 20260506090104 | 22 | 158 | 9.7 | 14.5 | 0.00 | 0.00 | 0.00 | 94 | 1007.9 |
| 20260506085556 | 23 | 170 | 8.0 | 16.1 | 0.00 | 0.00 | 0.00 | 94 | 1007.9 |
| 20260506085055 | 23 | 159 | 9.7 | 16.1 | 0.00 | 0.00 | 0.00 | 94 | 1007.9 |
| 20260506084558 | 23 | 164 | 11.3 | 16.1 | 0.00 | 0.00 | 0.00 | 94 | 1007.9 |
| 20260506084055 | 23 | 144 | 9.7 | 14.5 | 0.00 | 0.00 | 0.00 | 94 | 1007.9 |
| 20260506083554 | 23 | 141 | 11.3 | 14.5 | 0.00 | 0.00 | 0.00 | 94 | 1007.9 |
| 20260506083056 | 23 | 150 | 8.0 | 14.5 | 0.00 | 0.00 | 0.00 | 93 | 1008.1 |
| 20260506082555 | 23 | 174 | 9.7 | 17.7 | 0.00 | 0.00 | 0.00 | 93 | 1008.0 |
| 20260506082055 | 23 | 154 | 11.3 | 17.7 | 0.00 | 0.00 | 0.00 | 93 | 1008.0 |
| 20260506081557 | 23 | 174 | 9.7 | 16.1 | 0.00 | 0.00 | 0.00 | 93 | 1008.0 |
| 20260506081056 | 23 | 154 | 12.9 | 16.1 | 0.00 | 0.00 | 0.00 | 93 | 1008.0 |
| 20260506080555 | 23 | 156 | 11.3 | 16.1 | 0.00 | 0.00 | 0.00 | 93 | 1008.0 |
| 20260506080106 | 23 | 152 | 12.9 | 17.7 | 0.00 | 0.00 | 0.00 | 93 | 1008.0 |
| 20260506073055 | 23 | 170 | 9.7 | 17.7 | 0.00 | 0.00 | 0.00 | 93 | 1008.7 |
| 20260506072555 | 23 | 156 | 9.7 | 19.3 | 0.00 | 0.00 | 0.00 | 93 | 1008.7 |
| 20260506072055 | 23 | 163 | 11.3 | 19.3 | 0.00 | 0.00 | 0.00 | 93 | 1008.7 |
| 20260506071604 | 23 | 174 | 12.9 | 19.3 | 0.00 | 0.00 | 0.00 | 93 | 1008.8 |
| 20260506071055 | 23 | 150 | 11.3 | 17.7 | 0.00 | 0.00 | 0.00 | 93 | 1008.8 |
| 20260506070555 | 23 | 162 | 11.3 | 19.3 | 0.00 | 0.00 | 0.00 | 93 | 1008.9 |
| 20260506062055 | 23 | 155 | 12.9 | 17.7 | 0.00 | 0.00 | 0.00 | 93 | 1008.9 |
| 20260506061554 | 23 | 146 | 9.7 | 16.1 | 0.00 | 0.00 | 0.00 | 93 | 1009.1 |
| 20260506061056 | 23 | 160 | 11.3 | 16.1 | 0.00 | 0.00 | 0.00 | 93 | 1009.1 |
| 20260506060555 | 23 | 161 | 9.7 | 16.1 | 0.00 | 0.00 | 0.00 | 93 | 1009.1 |
| 20260506051052 | 23 | 153 | 8.0 | 14.5 | 0.00 | 0.00 | 0.00 | 91 | 1009.2 |
| 20260506050551 | 23 | 162 | 9.7 | 14.5 | 0.00 | 0.00 | 0.00 | 91 | 1009.2 |
| 20260506050107 | 23 | 163 | 9.7 | 14.5 | 0.00 | 0.00 | 0.00 | 91 | 1009.2 |
| 20260506045051 | 24 | 151 | 12.9 | 19.3 | 0.00 | 0.00 | 0.00 | 90 | 1009.1 |
| 20260506044554 | 24 | 155 | 12.9 | 19.3 | 0.00 | 0.00 | 0.00 | 90 | 1009.2 |
| 20260506044051 | 24 | 166 | 11.3 | 19.3 | 0.00 | 0.00 | 0.00 | 90 | 1009.2 |
| 20260506043554 | 24 | 167 | 12.9 | 19.3 | 0.00 | 0.00 | 0.00 | 90 | 1009.2 |
| 20260506043053 | 24 | 155 | 12.9 | 20.9 | 0.00 | 0.00 | 0.00 | 90 | 1009.1 |
| 20260506042554 | 24 | 157 | 16.1 | 22.5 | 0.00 | 0.00 | 0.00 | 90 | 1009.0 |
| 20260506042054 | 24 | 146 | 12.9 | 22.5 | 0.00 | 0.00 | 0.00 | 90 | 1008.9 |
| 20260506041600 | 24 | 204 | 14.5 | 22.5 | 0.00 | 0.00 | 0.00 | 90 | 1008.9 |
| 20260506041050 | 24 | 154 | 14.5 | 22.5 | 0.00 | 0.00 | 0.00 | 90 | 1008.9 |
| 20260506040551 | 24 | 175 | 16.1 | 22.5 | 0.00 | 0.00 | 0.00 | 90 | 1008.8 |
| 20260506040055 | 24 | 153 | 14.5 | 22.5 | 0.00 | 0.00 | 0.00 | 90 | 1008.8 |
| 20260506035555 | 24 | 161 | 11.3 | 19.3 | 0.00 | 0.00 | 0.00 | 90 | 1008.8 |
| 20260506035053 | 24 | 163 | 12.9 | 20.9 | 0.00 | 0.00 | 0.00 | 90 | 1008.8 |
| 20260506034610 | 24 | 152 | 12.9 | 20.9 | 0.00 | 0.00 | 0.00 | 90 | 1008.8 |
| 20260506034056 | 24 | 160 | 14.5 | 20.9 | 0.00 | 0.00 | 0.00 | 89 | 1008.7 |
| 20260506033551 | 24 | 146 | 12.9 | 17.7 | 0.00 | 0.00 | 0.00 | 89 | 1008.8 |
| 20260506033054 | 24 | 156 | 12.9 | 17.7 | 0.00 | 0.00 | 0.00 | 89 | 1008.8 |
| 20260506032554 | 24 | 160 | 9.7 | 17.7 | 0.00 | 0.00 | 0.00 | 89 | 1008.7 |
| 20260506032053 | 24 | 147 | 12.9 | 17.7 | 0.00 | 0.00 | 0.00 | 89 | 1008.7 |
| 20260506031556 | 24 | 162 | 11.3 | 17.7 | 0.00 | 0.00 | 0.00 | 89 | 1008.7 |
| 20260506031054 | 24 | 154 | 8.0 | 11.3 | 0.00 | 0.00 | 0.00 | 89 | 1008.7 |
| 20260506030550 | 24 | 154 | 6.4 | 11.3 | 0.00 | 0.00 | 0.00 | 89 | 1008.6 |
| 20260506030056 | 24 | 151 | 8.0 | 14.5 | 0.00 | 0.00 | 0.00 | 89 | 1008.4 |
| 20260506025555 | 24 | 168 | 9.7 | 14.5 | 0.00 | 0.00 | 0.00 | 89 | 1008.3 |
| 20260506025056 | 24 | 158 | 9.7 | 12.9 | 0.00 | 0.00 | 0.00 | 89 | 1008.2 |
| 20260506024612 | 24 | 136 | 8.0 | 11.3 | 0.00 | 0.00 | 0.00 | 89 | 1008.2 |
| 20260506024051 | 25 | 165 | 8.0 | 11.3 | 0.00 | 0.00 | 0.00 | 89 | 1008.1 |
| 20260506023550 | 24 | 136 | 4.8 | 12.9 | 0.00 | 0.00 | 0.00 | 89 | 1008.1 |
| 20260506023055 | 24 | 126 | 6.4 | 12.9 | 0.00 | 0.00 | 0.00 | 89 | 1008.0 |
| 20260506022554 | 24 | 148 | 8.0 | 12.9 | 0.00 | 0.00 | 0.00 | 89 | 1007.8 |
| 20260506022051 | 24 | 150 | 4.8 | 9.7 | 0.00 | 0.00 | 0.00 | 89 | 1007.8 |
| 20260506021554 | 24 | 183 | 4.8 | 9.7 | 0.00 | 0.00 | 0.00 | 89 | 1007.8 |
| 20260506021054 | 24 | 149 | 4.8 | 9.7 | 0.00 | 0.00 | 0.00 | 89 | 1007.7 |
| 20260506020555 | 25 | 154 | 6.4 | 11.3 | 0.00 | 0.00 | 0.00 | 88 | 1007.6 |
| 20260506020051 | 25 | 160 | 6.4 | 11.3 | 0.00 | 0.00 | 0.00 | 88 | 1007.7 |
| 20260506015554 | 25 | 150 | 8.0 | 14.5 | 0.00 | 0.00 | 0.00 | 88 | 1007.6 |
| 20260506015054 | 25 | 153 | 8.0 | 14.5 | 0.00 | 0.00 | 0.00 | 87 | 1007.6 |
| 20260506014553 | 25 | 155 | 9.7 | 20.9 | 0.00 | 0.00 | 0.00 | 87 | 1007.5 |
| 20260506014057 | 25 | 146 | 9.7 | 20.9 | 0.00 | 0.00 | 0.00 | 87 | 1007.3 |
| 20260506013555 | 25 | 163 | 12.9 | 19.3 | 0.00 | 0.00 | 0.00 | 87 | 1007.2 |
| 20260506013107 | 25 | 142 | 12.9 | 19.3 | 0.00 | 0.00 | 0.00 | 86 | 1007.2 |
| 20260506012558 | 25 | 148 | 11.3 | 19.3 | 0.00 | 0.00 | 0.00 | 86 | 1007.0 |
| 20260506012053 | 25 | 154 | 12.9 | 20.9 | 0.00 | 0.00 | 0.00 | 86 | 1007.0 |
| 20260506011606 | 25 | 148 | 14.5 | 20.9 | 0.00 | 0.00 | 0.00 | 85 | 1006.9 |
| 20260506011053 | 25 | 163 | 14.5 | 20.9 | 0.00 | 0.00 | 0.00 | 85 | 1006.8 |
| 20260506010554 | 25 | 150 | 16.1 | 20.9 | 0.00 | 0.00 | 0.00 | 85 | 1006.8 |
| 20260506010056 | 25 | 158 | 14.5 | 19.3 | 0.00 | 0.00 | 0.00 | 84 | 1006.8 |
| 20260506005554 | 25 | 148 | 14.5 | 20.9 | 0.00 | 0.00 | 0.00 | 84 | 1006.7 |
| 20260506005055 | 26 | 157 | 14.5 | 22.5 | 0.00 | 0.00 | 0.00 | 84 | 1006.8 |
| 20260506004555 | 26 | 141 | 12.9 | 22.5 | 0.00 | 0.00 | 0.00 | 83 | 1006.8 |
| 20260506004053 | 26 | 159 | 17.7 | 24.1 | 0.00 | 0.00 | 0.00 | 83 | 1006.7 |
| 20260506003552 | 26 | 144 | 16.1 | 24.1 | 0.00 | 0.00 | 0.00 | 82 | 1006.5 |
| 20260506003055 | 26 | 153 | 16.1 | 22.5 | 0.00 | 0.00 | 0.00 | 82 | 1006.6 |
| 20260506002554 | 26 | 133 | 17.7 | 22.5 | 0.00 | 0.00 | 0.00 | 82 | 1006.6 |
| 20260506002054 | 26 | 150 | 14.5 | 20.9 | 0.00 | 0.00 | 0.00 | 82 | 1006.5 |
| 20260506001554 | 26 | 143 | 12.9 | 24.1 | 0.00 | 0.00 | 0.00 | 82 | 1006.5 |
| 20260506001054 | 26 | 155 | 12.9 | 24.1 | 0.00 | 0.00 | 0.00 | 82 | 1006.6 |
| 20260506000554 | 26 | 146 | 16.1 | 29.0 | 0.00 | 0.00 | 0.00 | 82 | 1006.5 |
| 20260506000055 | 26 | 155 | 17.7 | 29.0 | 0.00 | 0.00 | 0.00 | 82 | 1006.5 |
| 20260505235554 | 26 | 146 | 19.3 | 29.0 | 0.00 | 0.00 | 0.00 | 82 | 1006.5 |
| 20260505235054 | 26 | 148 | 17.7 | 22.5 | 0.00 | 0.00 | 0.00 | 82 | 1006.5 |
| 20260505234557 | 26 | 138 | 14.5 | 25.7 | 0.00 | 0.00 | 0.00 | 81 | 1006.4 |
| 20260505234051 | 26 | 166 | 17.7 | 27.4 | 0.00 | 0.00 | 0.00 | 81 | 1006.4 |
| 20260505233554 | 27 | 139 | 17.7 | 27.4 | 0.00 | 0.00 | 0.00 | 80 | 1006.3 |
| 20260505233053 | 27 | 139 | 17.7 | 27.4 | 0.00 | 0.00 | 0.00 | 80 | 1006.3 |
| 20260505232554 | 27 | 145 | 16.1 | 22.5 | 0.00 | 0.00 | 0.00 | 80 | 1006.4 |
| 20260505232058 | 27 | 146 | 16.1 | 22.5 | 0.00 | 0.00 | 0.00 | 80 | 1006.4 |
| 20260505231633 | 27 | 140 | 17.7 | 22.5 | 0.00 | 0.00 | 0.00 | 79 | 1006.3 |
| 20260505231058 | 27 | 146 | 17.7 | 22.5 | 0.00 | 0.00 | 0.00 | 78 | 1006.1 |
| 20260505230556 | 27 | 213 | 14.5 | 22.5 | 0.00 | 0.00 | 0.00 | 77 | 1006.1 |
| 20260505230106 | 27 | 158 | 12.9 | 29.0 | 0.00 | 0.00 | 0.00 | 77 | 1006.2 |
| 20260505225556 | 28 | 165 | 19.3 | 29.0 | 0.00 | 0.00 | 0.00 | 77 | 1006.2 |
| 20260505225056 | 28 | 159 | 17.7 | 25.7 | 0.00 | 0.00 | 0.00 | 77 | 1006.2 |
| 20260505224556 | 28 | 145 | 17.7 | 25.7 | 0.00 | 0.00 | 0.00 | 76 | 1006.1 |
| 20260505224055 | 27 | 156 | 14.5 | 29.0 | 0.00 | 0.00 | 0.00 | 76 | 1006.1 |
| 20260505223555 | 27 | 129 | 16.1 | 29.0 | 0.00 | 0.00 | 0.00 | 77 | 1006.2 |
| 20260505223110 | 27 | 165 | 19.3 | 30.6 | 0.00 | 0.00 | 0.00 | 76 | 1006.1 |
| 20260505222555 | 28 | 147 | 17.7 | 30.6 | 0.00 | 0.00 | 0.00 | 77 | 1006.3 |
| 20260505222055 | 27 | 161 | 22.5 | 30.6 | 0.00 | 0.00 | 0.00 | 77 | 1006.2 |
| 20260505221557 | 28 | 146 | 19.3 | 29.0 | 0.00 | 0.00 | 0.00 | 77 | 1006.2 |
| 20260505221058 | 28 | 154 | 19.3 | 32.2 | 0.00 | 0.00 | 0.00 | 76 | 1006.2 |
| 20260505220600 | 28 | 162 | 19.3 | 32.2 | 0.00 | 0.00 | 0.00 | 76 | 1006.3 |
| 20260505220056 | 28 | 165 | 20.9 | 30.6 | 0.00 | 0.00 | 0.00 | 77 | 1006.2 |
| 20260505215556 | 28 | 160 | 22.5 | 30.6 | 0.00 | 0.00 | 0.00 | 76 | 1006.2 |
| 20260505215056 | 28 | 176 | 20.9 | 30.6 | 0.00 | 0.00 | 0.00 | 76 | 1006.4 |
| 20260505214557 | 28 | 155 | 17.7 | 30.6 | 0.00 | 0.00 | 0.00 | 78 | 1006.5 |
| 20260505214055 | 28 | 143 | 20.9 | 30.6 | 0.00 | 0.00 | 0.00 | 79 | 1006.4 |
| 20260505213600 | 28 | 150 | 20.9 | 35.4 | 0.00 | 0.00 | 0.00 | 77 | 1006.5 |
| 20260505213102 | 28 | 149 | 24.1 | 35.4 | 0.00 | 0.00 | 0.00 | 76 | 1006.6 |
| 20260505212555 | 28 | 142 | 22.5 | 30.6 | 0.00 | 0.00 | 0.00 | 76 | 1006.7 |
| 20260505212056 | 28 | 146 | 22.5 | 30.6 | 0.00 | 0.00 | 0.00 | 76 | 1006.9 |
| 20260505211555 | 28 | 153 | 22.5 | 30.6 | 0.00 | 0.00 | 0.00 | 77 | 1007.0 |
| 20260505211057 | 28 | 147 | 17.7 | 25.7 | 0.00 | 0.00 | 0.00 | 76 | 1006.9 |
| 20260505210556 | 28 | 155 | 19.3 | 25.7 | 0.00 | 0.00 | 0.00 | 73 | 1007.1 |
| 20260505210056 | 28 | 153 | 17.7 | 29.0 | 0.00 | 0.00 | 0.00 | 74 | 1007.2 |
| 20260505205555 | 28 | 179 | 20.9 | 29.0 | 0.00 | 0.00 | 0.00 | 74 | 1007.3 |
| 20260505205056 | 28 | 149 | 19.3 | 25.7 | 0.00 | 0.00 | 0.00 | 75 | 1007.3 |
| 20260505204601 | 28 | 168 | 17.7 | 25.7 | 0.00 | 0.00 | 0.00 | 75 | 1007.4 |
| 20260505204056 | 28 | 193 | 14.5 | 27.4 | 0.00 | 0.00 | 0.00 | 75 | 1007.6 |
| 20260505203555 | 28 | 156 | 19.3 | 27.4 | 0.00 | 0.00 | 0.00 | 75 | 1007.7 |
| 20260505203116 | 28 | 169 | 17.7 | 24.1 | 0.00 | 0.00 | 0.00 | 75 | 1007.9 |
| 20260505202557 | 28 | 168 | 17.7 | 25.7 | 0.00 | 0.00 | 0.00 | 74 | 1007.9 |
| 20260505202056 | 28 | 148 | 17.7 | 25.7 | 0.00 | 0.00 | 0.00 | 76 | 1007.9 |
| 20260505201557 | 28 | 162 | 17.7 | 24.1 | 0.00 | 0.00 | 0.00 | 74 | 1008.0 |
| 20260505201056 | 28 | 172 | 14.5 | 25.7 | 0.00 | 0.00 | 0.00 | 76 | 1008.1 |
| 20260505200558 | 28 | 172 | 16.1 | 25.7 | 0.00 | 0.00 | 0.00 | 75 | 1008.1 |
| 20260505200054 | 28 | 190 | 17.7 | 25.7 | 0.00 | 0.00 | 0.00 | 77 | 1008.2 |
| 20260505195558 | 28 | 171 | 14.5 | 24.1 | 0.00 | 0.00 | 0.00 | 76 | 1008.2 |
| 20260505195055 | 28 | 160 | 16.1 | 24.1 | 0.00 | 0.00 | 0.00 | 76 | 1008.3 |
| 20260505194610 | 28 | 167 | 16.1 | 27.4 | 0.00 | 0.00 | 0.00 | 76 | 1008.4 |
| 20260505194059 | 28 | 195 | 19.3 | 27.4 | 0.00 | 0.00 | 0.00 | 74 | 1008.4 |
| 20260505193556 | 28 | 176 | 17.7 | 25.7 | 0.00 | 0.00 | 0.00 | 75 | 1008.3 |
| 20260505193056 | 28 | 190 | 16.1 | 25.7 | 0.00 | 0.00 | 0.00 | 76 | 1008.6 |
| 20260505192559 | 27 | 198 | 16.1 | 24.1 | 0.00 | 0.00 | 0.00 | 76 | 1008.6 |
| 20260505192056 | 27 | 199 | 14.5 | 22.5 | 0.00 | 0.00 | 0.00 | 79 | 1008.8 |
| 20260505191554 | 27 | 211 | 16.1 | 20.9 | 0.00 | 0.00 | 0.00 | 79 | 1008.7 |
| 20260505191057 | 27 | 191 | 14.5 | 19.3 | 0.00 | 0.00 | 0.00 | 79 | 1008.8 |
| 20260505190559 | 27 | 175 | 14.5 | 19.3 | 0.00 | 0.00 | 0.00 | 80 | 1008.8 |
| 20260505190054 | 27 | 191 | 12.9 | 19.3 | 0.00 | 0.00 | 0.00 | 78 | 1008.9 |